Mitchell, SD

7:03 PM CST on November 18, 2019 (GMT -0600)
Mitchell Municipal

Weather History for KMHE - September, 2019

Change the Weather History Date:

Monday, September 9, 2019

  Actual Average Record
Temperature  
Mean Temperature 74 °F 66 °F  
Max Temperature 85 °F 78 °F 105 °F (1904)
Min Temperature 63 °F 53 °F 31 °F (1910)
Degree Days  
Heating Degree Days 0 3  
Month to date heating degree days 2 19  
Since 1 July heating degree days 11 36  
Cooling Degree Days 9 3  
Month to date cooling degree days 47 39  
Year to date cooling degree days 841 784  
Growing Degree Days 24 (Base 50)    
Moisture  
Dew Point 65 °F    
Average Humidity 76    
Maximum Humidity 93    
Minimum Humidity 59    
Precipitation  
Precipitation 0.42 in 0.07 in 1.17 in (1929)
Month to date precipitation 0.52 0.73  
Year to date precipitation 25.56 17.08  
Snow  
Snow 0.00 in - 0.00 in ()
Month to date snowfall 0.0  
Since 1 July snowfall 0.0  
Since 1 September snowfall 0.0  
Snow Depth 0.00 in    
Sea Level Pressure  
Sea Level Pressure 29.81 in    
Wind  
Wind Speed 12 mph (SSE)    
Max Wind Speed 22 mph    
Max Gust Speed 33 mph    
Visibility 7 miles    
Events Rain , Thunderstorm    
T = Trace of Precipitation, MM = Missing Value Source: NWS Daily Summary

Daily Weather History Graph

Daily Weather History Graph

Search for Another Location

Airport or City:

Astronomy

Sep. 09, 2019 Rise Set
Actual Time 7:04 AM CDT 7:53 PM CDT
Civil Twilight 6:35 AM CDT 8:22 PM CDT
Nautical Twilight 6:00 AM CDT 8:57 PM CDT
Astronomical Twilight 5:24 AM CDT 9:33 PM CDT
Moon 5:59 PM CDT (9/9) 2:27 AM CDT (9/9)
Length of Visible Light 13h 47m
Length of Day
12h 49m
Waxing Gibbous, 83% of the Moon is Illuminated
Sep 9
Waxing Gibbous
Sep 13
Full
Sep 21
Last Quarter
Sep 28
New
Oct 5
First Quarter

Hourly Weather History & Observations

Time (CDT) Temp. Heat Index Dew Point Humidity Pressure Visibility Wind Dir Wind Speed Gust Speed Precip Events Conditions
12:53 AM 64.0 °F - 61.0 °F 90% 29.98 in 8.0 mi East 10.4 mph - N/A   Overcast
1:53 AM 63.0 °F - 61.0 °F 93% 29.96 in 4.0 mi ESE 6.9 mph - N/A   Overcast
2:16 AM 63.0 °F - 62.1 °F 97% 29.96 in 2.5 mi ESE 5.8 mph - N/A   Overcast
2:53 AM 63.0 °F - 61.0 °F 93% 29.94 in 3.0 mi ESE 10.4 mph - 0.01 in Rain Light Rain
3:53 AM 64.0 °F - 61.0 °F 90% 29.91 in 9.0 mi ESE 12.7 mph - 0.00 in   Overcast
4:05 AM 64.0 °F - 61.0 °F 90% 29.91 in 9.0 mi ESE 12.7 mph - N/A   Overcast
4:25 AM 64.0 °F - 62.1 °F 93% 29.90 in 7.0 mi ESE 12.7 mph - N/A   Overcast
4:53 AM 64.0 °F - 62.1 °F 93% 29.89 in 6.0 mi ESE 12.7 mph - N/A   Overcast
5:53 AM 64.0 °F - 62.1 °F 93% 29.86 in 6.0 mi ESE 12.7 mph - N/A   Overcast
6:27 AM 64.0 °F - 62.1 °F 93% 29.86 in 6.0 mi ESE 12.7 mph - N/A   Overcast
6:36 AM 64.9 °F - 62.1 °F 90% 29.86 in 5.0 mi SE 11.5 mph - 0.02 in Rain , Thunderstorm Light Rain
6:51 AM 64.4 °F - 62.6 °F 94% 29.86 in 1.8 mi SE 12.7 mph 23.0 mph 0.21 in Rain , Thunderstorm Heavy Rain
6:53 AM 64.0 °F - 62.1 °F 93% 29.85 in 1.8 mi SE 13.8 mph - 0.21 in Rain , Thunderstorm Heavy Rain
6:59 AM 64.0 °F - 62.1 °F 93% 29.86 in 3.0 mi SE 13.8 mph - 0.01 in Rain , Thunderstorm Light Rain
7:14 AM 64.0 °F - 62.1 °F 93% 29.86 in 4.0 mi SE 10.4 mph - 0.04 in Rain , Thunderstorm Thunderstorms and Rain
7:23 AM 64.9 °F - 62.1 °F 90% 29.86 in 2.0 mi SE 12.7 mph - 0.15 in Rain Heavy Rain
7:39 AM 64.9 °F - 63.0 °F 93% 29.86 in 4.0 mi SSE 12.7 mph - 0.18 in Rain Light Rain
7:53 AM 64.9 °F - 63.0 °F 93% 29.84 in 3.0 mi SSE 10.4 mph - 0.18 in Rain Light Rain
8:01 AM 64.9 °F - 63.0 °F 93% 29.85 in 2.5 mi SE 12.7 mph - 0.00 in Rain Light Rain
8:34 AM 64.9 °F - 63.0 °F 93% 29.83 in 4.0 mi SSE 10.4 mph 19.6 mph 0.01 in   Overcast
8:53 AM 66.0 °F - 64.0 °F 93% 29.82 in 6.0 mi SSE 12.7 mph - 0.01 in   Overcast
9:53 AM 66.9 °F - 64.9 °F 93% 29.81 in 5.0 mi SSE 11.5 mph - N/A   Overcast
10:17 AM 68.0 °F - 66.0 °F 93% 29.80 in 5.0 mi SE 10.4 mph - 0.00 in Rain Light Rain
10:53 AM 69.1 °F - 66.9 °F 93% 29.76 in 6.0 mi SE 10.4 mph - 0.01 in   Overcast
11:53 AM 71.1 °F - 68.0 °F 90% 29.76 in 9.0 mi SSE 13.8 mph 23.0 mph N/A   Overcast
12:53 PM 73.0 °F - 69.1 °F 87% 29.74 in 9.0 mi SSE 13.8 mph - N/A   Overcast
1:50 PM 78.8 °F - 69.8 °F 74% 29.74 in 10.0 mi South 18.4 mph 27.6 mph N/A   Mostly Cloudy
1:53 PM 78.1 °F - 70.0 °F 76% 29.71 in 10.0 mi South 17.3 mph 27.6 mph N/A   Scattered Clouds
2:53 PM 82.0 °F 84.9 °F 68.0 °F 62% 29.69 in 10.0 mi South 12.7 mph 27.6 mph N/A   Scattered Clouds
3:53 PM 84.0 °F 87.0 °F 68.0 °F 58% 29.68 in 10.0 mi South 15.0 mph 29.9 mph N/A   Partly Cloudy
4:53 PM 84.0 °F 87.0 °F 68.0 °F 58% 29.67 in 10.0 mi South 11.5 mph 26.5 mph N/A   Clear
5:53 PM 84.0 °F 87.0 °F 68.0 °F 58% 29.67 in 10.0 mi South 16.1 mph 21.9 mph N/A   Clear
6:53 PM 82.0 °F 85.5 °F 69.1 °F 65% 29.68 in 10.0 mi South 9.2 mph - N/A   Clear
7:53 PM 79.0 °F - 68.0 °F 69% 29.69 in 10.0 mi South 10.4 mph - N/A   Clear
8:53 PM 78.1 °F - 66.9 °F 68% 29.70 in 10.0 mi South 11.5 mph - N/A   Clear
9:53 PM 75.9 °F - 66.9 °F 74% 29.73 in 10.0 mi SSW 11.5 mph - N/A   Partly Cloudy
10:53 PM 73.0 °F - 66.9 °F 81% 29.76 in 10.0 mi WSW 5.8 mph - N/A   Clear
11:53 PM 72.0 °F - 64.0 °F 76% 29.79 in 10.0 mi North 8.1 mph - N/A   Clear